Starlink 30284

operational
NORAD ID: 57877 Int'l Des: 2023-144 Owner: SPXS Country: US Constellation: starlink
LEOCIRCULAR

Über Starlink 30284

Beschreibung wird geladen...

Live-Position

3D-Globus wird geladen...

Nächste Überflüge

Höhenverlauf

Altitude vs Time

uPlot chart will show altitude changes over time

Zweizeiliger Elementsatz

1 57877U 23144P 26035.13244145 .00000040 00000-0 18034-4 0 9992
2 57877 43.0048 71.4964 0001835 279.5523 80.5112 15.02534690133005
Epoch: 4. Feb. 2026 • Age: 15 hours

Aktueller Status

Höhe 563.5 km
Geschwindigkeit 7.58 km/s
Subsatellitenpunkt 42.90°N, 121.54°E
Startdatum 16. Sept. 2023
Alter 2.3 years
Typ internet

Technische Details

Klassifizierung Payload
Masse 730.00 kg
Trockenmasse 700.00 kg
Gesamtmasse 730.00 kg
Länge 0.30 m
Durchmesser 4.10 m
Spannweite 29.00 m
Form Box + pan
Hersteller SPXS
Bus-Typ Starlink V2M
Phasenstatus In Orbit
Besitzer/Staat SPXS/US

Große Konstellationen

Loading constellations...